Kosmos-1732

operational
NORAD ID: 16593 Int'l Des: 1986-015 Owner: VTS Country: SU
LEOCIRCULAR

About Kosmos-1732

Description loading...

Live Position

Loading 3D Globe...

Upcoming Passes

Altitude History

Altitude vs Time

uPlot chart will show altitude changes over time

Two-Line Element Set

1 16593U 86015A 26061.17018489 .00000004 00000-0 15899-3 0 9996
2 16593 73.6076 88.7835 0027305 220.6811 139.2193 12.41024698814548
Epoch: Mar 2, 2026 • Age: 30 hours

Current Status

Altitude 1523.7 km
Velocity 7.11 km/s
Sub-Earth Point 69.87°N, 33.41°W
Launch Date Feb 11, 1986
Age 40 years
Type other

Technical Details

Classification Payload
Mass 1557.00 kg
Dry Mass 1557.00 kg
Total Mass 1557.00 kg
Length 5.80 m
Diameter 2.40 m
Span 17.80 m
Shape Cyl + 2 Pan + Ant
Manufacturer NPOPM
Bus Type KAUR-1 11F666
Phase Status In Orbit
Owner/State VTS/SU

Large Constellations

Loading constellations...